星链-34298 (STARLINK-34298)

导读

STARLINK-34298是美国SpaceX公司星链(Starlink)卫星互联网项目的一员,于2025年6月4日发射入轨。星链计划旨在构建覆盖全球的低轨卫星互联网星座,为偏远地区等提供高速低延迟宽带服务。该卫星是星链星座扩容的组成部分,进一步完善了星座的全球网络覆盖能力,推动全球卫星互联网服务的普及,目前星链项目已累计发射数千颗卫星,计划最终部署数万颗低轨卫星。

基本信息
目录编号:
64269
目录名称:
STARLINK-34298
国际标识:
2025-120P
轨道中心:
EARTH
卫星名称:
星链-34298
卫星全名:
星链-34298 (STARLINK-34298)
卫星状态:
在轨 (已飞行457 天)
发射日期:
2025-06-04 UTC
国别 :
美国 (US)
星等 :
--
轨道信息
数据来源 国际轨道数据
星历时间: 2026-09-04T03:29:09+0800
10小时前
查看轨道信息
半长轴: 6840.817km
偏心率: 0.0001306
轨道倾角: 53.160°
近地点辐角 89.976°
升交点赤经 3.926°
平近点角 270.139°
近地点: 461.786km
远地点: 463.574km
周期: 93.847分钟
每日圈数: 15.344079
详细信息
固有亮度:
5
最大亮度:
2.5
卫星平台:
Starlink V1.0
覆盖范围:
全球
运营商:
太空探索技术公司
运营商所在国:
美国
制造商(研发单位):
太空探索技术公司
制造商所在国:
美国
使用方式:
暂无
卫星简介
Starlink 计划是 SpaceX 推出的全球卫星互联网项目,通过发射低轨道卫星,为全球尤其是偏远地区提供高速、低延迟的互联网服务。自 2019 年起,Starlink 已部署数千颗卫星,旨在缩小全球数字鸿沟,推动互联网普及。该项目还为军事、航空等行业提供通信支持,带来广泛经济效益。
2D轨道图
3D轨道图
轨道高度分析图
轨道倾角分析图
轨道综合分析图
查看轨道综合分析图
交会数据列表
事件ID 空间交会对象 最接近时刻(TCA) 交会距离 交会风险概率(CRP) 交会风险指数(CRI) 操作
CDM_260904-132205-372006-426921
2026-09-04T
13:22:52+0000
1.035 km
极远距离
2.080962E-5 中风险 0.61
CDM_260904-082306-426206-426921
2026-09-04T
08:23:06+0000
0.618 km
远距离
1.723107E-5 中风险 0.6
CDM_260904-073606-426206-426921
2026-09-04T
07:36:12+0000
0.763 km
远距离
8.55712E-6 低风险 0.54
CDM_260905-072105-372006-426921
2026-09-05T
07:21:29+0000
1.506 km
极远距离
5.742044E-6 低风险 0.5
CDM_260904-145605-372006-426921
2026-09-04T
14:56:39+0000
1.636 km
极远距离
4.4187E-6 低风险 0.48
CDM_260905-085505-372006-426921
2026-09-05T
08:55:16+0000
1.712 km
极远距离
3.846904E-6 低风险 0.47
CDM_260904-095606-426206-426921
2026-09-04T
09:56:53+0000
1.205 km
极远距离
1.867829E-6 低风险 0.4
CDM_260904-091006-426206-426921
2026-09-04T
09:10:00+0000
1.385 km
极远距离
1.219428E-6 低风险 0.37
CDM_260905-164006-048506-426921
2026-09-05T
16:40:07+0000
2.806 km
极远距离
9.129719E-7 极低风险 0.34
CDM_260904-060206-426206-426921
2026-09-04T
06:02:25+0000
2.304 km
极远距离
3.803213E-7 极低风险 0.27